Retour au catalogue

STARLINK-36857

ActifCommunicationsVLEO
NORAD 68518·PAYLOAD·🇺🇸 United States

Lancé Mar 30, 2026 depuis Cape Canaveral Space Force Station

Loading…

Prochains Passages (prochaines 24 heures)

TLE

FraisSource: CelesTrak SupGP

Époque: Sep 15, 2026, 03:19 UTC

1 68518C 26068L   26258.13868056  .00051407  00000+0  15187-2 0  2588
2 68518  53.1597 324.6398 0000976  77.3417   9.1783 15.34369258    11

Suivez STARLINK-36857 en temps réel avec AllMySat

Download on the App Store